Regional Weather Roundup
Issued by NWS

Home | Current Version | Previous Version | Graphics & Text | Print | Product List | Glossary Off
Versions: 1 2 3 4 5 6 7 8 9 10 11 12 13 14 15 16 17 18 19 20 21 22 23 24 25 26 27 28 29 30 31 32 33 34 35 36 37 38 39 40 41 42 43 44 45 46 47 48 49 50

000
ASUS43 KFSD 031002
RWRSD

WEATHER ROUNDUP FOR SOUTH DAKOTA
NATIONAL WEATHER SERVICE SIOUX FALLS SD
400 AM CST SAT DEC 03 2016

NOTE: "FAIR" INDICATES FEW OR NO CLOUDS BELOW 12,000 FEET WITH NO
SIGNIFICANT WEATHER AND/OR OBSTRUCTIONS TO VISIBILITY.


SDZ001>005-009-010-012>017-031100-
NORTHWEST AND NORTH CENTRAL SOUTH DAKOTA

CITY           SKY/WX    TMP DP  RH WIND       PRES   REMARKS
BUFFALO          N/A     20  17  88 S10       29.89F WCI   9
FAITH            N/A     19  17  92 SE17      30.03F WCI   4
MOBRIDGE       CLOUDY    26  23  88 S14       30.10F FOG     WCI  14
$$

SDZ012>016-024>037-041>051-057-063-072>074-031100-
SOUTHWEST AND SOUTH CENTRAL SOUTH DAKOTA

CITY           SKY/WX    TMP DP  RH WIND       PRES   REMARKS
RAPID CTY ARPT CLOUDY    19  15  84 SE6       30.00F WCI  11
PIERRE         NOT AVBL
CUSTER         PTCLDY    22  18  85 SW7       29.94F WCI  13
ELLSWORTH AFB  CLOUDY    24  20  82 S8        29.98F WCI  16
PHILIP         MOCLDY     8   6  92 CALM      30.09F
PINE RIDGE     CLOUDY    30  24  78 S17       30.06F WCI  18
SPEARFISH      FAIR      34  19  55 VRB7G21   29.92F WCI  28
$$

SDZ004>011-016>023-039-040-031100-
NORTHEAST SOUTH DAKOTA

CITY           SKY/WX    TMP DP  RH WIND       PRES   REMARKS
ABERDEEN       NOT AVBL
WATERTOWN      NOT AVBL
SISSETON         N/A     25  18  74 CALM      30.24F
$$

SDZ017-020-022-023-036>040-048>070-031100-
SOUTHEAST SOUTH DAKOTA

CITY           SKY/WX    TMP DP  RH WIND       PRES   REMARKS
SIOUX FALLS    CLOUDY    30  26  85 S6        30.28F WCI  24
HURON          CLEAR     24  23  96 SE6       30.24F WCI  17
CHAMBERLAIN    CLEAR     23  22  96 SE3       30.19F
MITCHELL       CLEAR     27  26  96 SE8       30.25F WCI  19
YANKTON        CLEAR     27  21  80 SE3       30.29F
$$

ABBREVIATIONS USED IN REMARKS
   TC - TEMPERATURE IN CELSIUS
  WCI - WIND CHILL INDEX
   HX - HEAT INDEX
  VSB - VISIBILITY





USA.gov is the U.S. government's official web portal to all federal, state and local government web resources and services.